Flag for China Weather past 2 weeks in Guiyang, Guizhou, China

Now
63 °F

Light rain. Fog.


Feels Like: 63 °F
Forecast: 65 / 81 °F
Wind: 6 mph from North

Location: Guiyang Airport

Current Time: May 30, 2015 at 9:13:36 AM

Latest Report: May 30, 2015 at 8:00 AM


Visibility: 2 mi

Pressure: 30.01 "Hg

Humidity: 100%

Dew point: 63 °F

Location of GuiyangLocation

Historic Weather in Guiyang — Graph

°F

Guiyang temperature yesterday

Maximum temperature yesterday: 77 °F (at 12:00 AM)
Minimum temperature yesterday: 66 °F (at 10:00 PM)
Average temperature yesterday: 73 °F

Past Weeks' High & Low Weather Summary

 TemperatureHumidityPressure
High90 °F (May 28, 3:00 PM)100% (May 15, 8:00 AM)30.04 "Hg (May 15, 8:00 AM)
Low57 °F (May 23, 4:00 AM)51% (May 24, 2:00 PM)29.62 "Hg (May 28, 3:00 PM)
Average69 °F87%29.86 "Hg
* Reported May 15 8:00 AM — May 30 8:00 AM, Guiyang, Weather by CustomWeather, © 2015

Note: Actual official high and low records may vary slightly from our data, if they occured in-between our weather recording intervals... More about our weather records

Advertising

Guiyang weather history for previous 24 hours

 ConditionsComfort  
Time TempWeatherWind HumidityBarometerVisibility
8:00 AM
Sat, May 30
63 °FLight rain. Fog.6 mph100%30.01 "Hg2 mi
7:00 AM63 °FLight rain. Mostly cloudy.6 mph100%29.98 "Hg4 mi
6:00 AM63 °FThunderstorms. Fog.10 mph94%29.95 "Hg1 mi
5:00 AM63 °FLight rain. Fog.8 mph94%29.92 "Hg2 mi
4:00 AM64 °FLight rain. Overcast.6 mph94%29.92 "HgN/A
3:00 AM64 °FLight rain. Mostly cloudy.1 mph94%29.92 "HgN/A
2:00 AM64 °FPassing clouds.6 mph88%29.92 "HgN/A
1:00 AM64 °FPassing clouds.3 mph88%29.95 "HgN/A
12:00 AM64 °FPassing clouds.3 mph88%29.95 "HgN/A
11:00 PM
Fri, May 29
66 °FPassing clouds.6 mph83%29.95 "HgN/A
10:00 PM66 °FPartly cloudy.3 mph88%29.95 "HgN/A
9:00 PM68 °FPartly cloudy.8 mph83%29.92 "HgN/A
8:00 PM68 °FPassing clouds.8 mph83%29.89 "HgN/A
7:00 PM72 °FPartly sunny.8 mph78%29.83 "HgN/A
6:00 PM73 °FScattered clouds.10 mph74%29.83 "HgN/A
5:00 PM77 °FBroken clouds.6 mph74%29.83 "HgN/A
4:00 PM73 °FMostly cloudy.10 mph78%29.83 "HgN/A
3:00 PM75 °FPartly sunny.8 mph78%29.83 "HgN/A
2:00 PM75 °FPartly sunny.8 mph78%29.83 "HgN/A
1:00 PM75 °FBroken clouds.8 mph78%29.83 "HgN/A
12:00 PM73 °FPartly sunny.8 mph83%29.86 "Hg5 mi
11:00 AM73 °FMostly cloudy.6 mph83%29.83 "Hg4 mi
10:00 AM72 °FLight rain. Mostly cloudy.8 mph88%29.83 "Hg4 mi
9:00 AM72 °FSprinkles. Fog.6 mph88%29.80 "Hg3 mi
Weather by CustomWeather, © 2015

See weather overviewHow to use our weather pages